Weather History for PAMC - May, 2013

Change the Weather History Date:

Tuesday, May 14, 2013

  Actual Average Record
Temperature  
Mean Temperature 33 °F 46 °F  
Max Temperature 44 °F 57 °F 70 °F (1978)
Min Temperature 21 °F 36 °F 21 °F (2013)
Degree Days  
Heating Degree Days 32 19  
Month to date heating degree days 429 304  
Since 1 July heating degree days 14047 13258  
Cooling Degree Days 0    
Month to date cooling degree days 0  
Year to date cooling degree days 0  
Moisture  
Dew Point 16 °F    
Average Humidity 0    
Maximum Humidity 0    
Minimum Humidity 0    
Precipitation  
Precipitation 0.00 in 0.03 in 0.40 in (1997)
Month to date precipitation 0.07 0.43  
Year to date precipitation 3.86 4.01  
Snow  
Snow 0.00 in 0.00 in 1.40 in (1985)
Month to date snowfall 0.7 0.6  
Since 1 July snowfall 75.0 97.0  
Snow Depth 0.00 in    
Sea Level Pressure  
Sea Level Pressure 29.70 in    
Wind  
Wind Speed 3 mph (NNW)    
Max Wind Speed 9 mph    
Max Gust Speed 12 mph    
Visibility 10 miles    
Events      
T = Trace of Precipitation, MM = Missing Value Source: NWS Daily Summary

Daily Weather History Graph

Daily Weather History Graph

Search for Another Location

Airport or City:

Trip Planner

Search our weather history database for the weather conditions in past years. The results will help you decide how hot, cold, wet, or windy it might be!

Date:

Astronomy

May. 14, 2013 Rise Set
Actual Time 5:21 AM AKDT 11:18 PM AKDT
Civil Twilight 3:58 AM AKDT 12:43 AM AKDT
Nautical Twilight Sun does not set Sun does not set
Astronomical Twilight Sun does not set Sun does not set
Moon 9:19 AM AKDT (5/14) 2:26 AM AKDT (5/14)
Length of Visible Light 20h 45m
Length of Day
17h 56m
Waxing Crescent, 20% of the Moon is Illuminated
May 14
Waxing Crescent
May 17
First Quarter
May 24
Full
May 31
Last Quarter
Jun 8
New

Hourly Weather History & Observations

Time (AKDT) Temp. Windchill Dew Point Humidity Pressure Visibility Wind Dir Wind Speed Gust Speed Precip Events Conditions
12:53 AM 28.0 °F - 15.1 °F 58% 29.70 in 10.0 mi Calm Calm - N/A   Partly Cloudy
1:53 AM 26.1 °F - 16.0 °F 66% 29.71 in 10.0 mi Calm Calm - N/A   Partly Cloudy
2:53 AM 25.0 °F - 16.0 °F 69% 29.71 in 10.0 mi Calm Calm - N/A   Partly Cloudy
3:53 AM 24.1 °F - 15.1 °F 69% 29.72 in 10.0 mi Calm Calm - N/A   Partly Cloudy
4:53 AM 21.9 °F 17.2 °F 15.1 °F 75% 29.73 in 10.0 mi WNW 3.5 mph - N/A   Clear
5:53 AM 21.0 °F 16.2 °F 15.1 °F 78% 29.73 in 10.0 mi West 3.5 mph - N/A   Clear
6:53 AM 23.0 °F - 15.1 °F 72% 29.73 in 10.0 mi Calm Calm - N/A   Clear
7:53 AM 26.1 °F - 14.0 °F 60% 29.73 in 10.0 mi Calm Calm - N/A   Clear
8:53 AM 28.9 °F 25.2 °F 14.0 °F 54% 29.73 in 10.0 mi North 3.5 mph - N/A   Clear
9:53 AM 30.9 °F 24.3 °F 14.0 °F 50% 29.73 in 10.0 mi North 6.9 mph - N/A   Clear
10:53 AM 32.0 °F 24.8 °F 14.0 °F 48% 29.73 in 10.0 mi NNE 8.1 mph - N/A   Clear
11:53 AM 34.0 °F 31.0 °F 15.1 °F 46% 29.72 in 10.0 mi Variable 3.5 mph - N/A   Clear
12:53 PM 37.0 °F 32.4 °F 16.0 °F 42% 29.72 in 10.0 mi NNE 5.8 mph - N/A   Clear
1:53 PM 39.0 °F 34.0 °F 16.0 °F 39% 29.71 in 10.0 mi NE 6.9 mph - N/A   Partly Cloudy
2:53 PM 37.9 °F 34.4 °F 14.0 °F 38% 29.70 in 10.0 mi Variable 4.6 mph - N/A   Partly Cloudy
3:53 PM 39.0 °F - 12.9 °F 34% 29.69 in 10.0 mi Calm Calm - N/A   Partly Cloudy
4:53 PM 42.1 °F 38.4 °F 16.0 °F 35% 29.68 in 10.0 mi Variable 5.8 mph - N/A   Partly Cloudy
5:53 PM 43.0 °F 41.3 °F 18.0 °F 37% 29.67 in 10.0 mi Variable 3.5 mph - N/A   Clear
6:53 PM 44.1 °F 41.5 °F 18.0 °F 35% 29.67 in 10.0 mi WNW 4.6 mph - N/A   Scattered Clouds
7:53 PM 42.1 °F 37.7 °F 17.1 °F 37% 29.67 in 10.0 mi WNW 6.9 mph - N/A   Clear
8:53 PM 41.0 °F - 15.1 °F 35% 29.66 in 10.0 mi Calm Calm - N/A   Clear
9:53 PM 39.9 °F 35.1 °F 17.1 °F 40% 29.66 in 10.0 mi NW 6.9 mph - N/A   Clear
10:53 PM 37.0 °F 33.3 °F 17.1 °F 44% 29.67 in 10.0 mi NW 4.6 mph - N/A   Clear
11:53 PM 32.0 °F - 21.9 °F 66% 29.67 in 10.0 mi Calm Calm - N/A   Clear